Location: Bilbao
(43.2630°N, 2.9350°W)
Time: 20:42:39
(UTC+01:00)

Falconsat - Visible Passes

Search period start: 02 December 2024 00:00
Search period end: 12 December 2024 00:00
Orbit: 742 x 795 km, 100.2° (Epoch: 01 December)

Date Brightness Start Highest point End Pass type
(mag) Time Alt. Az. Time Alt. Az. Time Alt. Az.
02 Dec 11.9 04:16:35 10° E 04:17:38 13° ENE 04:17:38 13° ENE visible
02 Dec 8.9 05:52:19 10° SSE 05:57:33 85° WSW 05:57:54 78° NW visible
02 Dec 10.9 07:36:02 10° WSW 07:37:06 11° W 07:38:09 10° WNW visible
02 Dec 10.2 18:01:52 10° NE 18:05:46 22° E 18:09:37 10° SE visible
02 Dec 9.9 19:40:00 10° N 19:44:50 46° WNW 19:49:36 10° SW visible
03 Dec 10.0 05:16:56 10° SE 05:21:37 46° ENE 05:21:37 46° ENE visible
03 Dec 10.1 06:56:47 10° SSW 07:00:56 24° W 07:01:53 23° W visible
03 Dec 8.9 19:04:05 10° NNE 19:09:11 83° ESE 19:14:10 10° SSW visible
03 Dec 11.7 20:44:40 10° NNW 20:47:19 14° NW 20:49:57 10° W visible
04 Dec 11.2 04:42:23 10° ESE 04:45:19 22° E 04:45:19 22° E visible
04 Dec 9.2 06:19:54 10° S 06:24:57 50° WSW 06:25:35 47° WNW visible
04 Dec 9.5 18:28:37 10° NNE 18:33:19 38° E 18:37:55 10° SSE visible
04 Dec 10.8 20:07:43 10° N 20:12:00 28° WNW 20:16:12 10° WSW visible
05 Dec 9.1 05:43:58 10° SSE 05:49:10 78° ENE 05:49:18 77° NE visible
05 Dec 10.7 07:25:58 10° WSW 07:28:33 14° W 07:29:34 13° W visible
05 Dec 9.5 19:31:30 10° N 19:36:28 58° WNW 19:41:20 10° SSW visible
06 Dec 10.4 05:08:49 10° SE 05:13:01 36° E 05:13:01 36° E visible
06 Dec 9.8 06:47:56 10° SSW 06:52:27 29° W 06:53:16 28° W visible
06 Dec 8.9 18:55:43 10° NNE 19:00:44 66° ESE 19:05:41 10° S visible
06 Dec 11.5 20:35:48 10° NNW 20:39:03 18° WNW 20:42:16 10° W visible
07 Dec 11.5 04:34:33 10° ESE 04:36:43 17° E 04:36:43 17° E visible
07 Dec 9.0 06:11:22 10° S 06:16:31 63° WSW 06:17:00 60° WNW visible
07 Dec 9.8 18:20:24 10° NE 18:24:49 30° E 18:29:09 10° SSE visible
07 Dec 10.4 19:59:08 10° N 20:03:40 34° WNW 20:08:07 10° SW visible
08 Dec 9.4 05:35:40 10° SSE 05:40:42 62° ENE 05:40:42 62° ENE visible
08 Dec 10.4 07:16:38 10° SW 07:20:02 17° W 07:20:58 17° W visible
08 Dec 9.1 19:23:02 10° NNE 19:28:04 73° WNW 19:33:00 10° SSW visible
08 Dec 11.9 21:04:58 10° NW 21:06:00 11° NW 21:07:02 10° WNW visible
09 Dec 10.8 05:00:45 10° ESE 05:04:25 29° E 05:04:25 29° E visible
09 Dec 9.6 06:39:11 10° SSW 06:43:58 37° W 06:44:41 35° W visible
09 Dec 9.1 18:47:22 10° NNE 18:52:16 52° ESE 18:57:06 10° S visible
09 Dec 11.2 20:27:02 10° NNW 20:30:45 21° WNW 20:34:26 10° WSW visible
10 Dec 11.8 04:26:51 10° E 04:28:08 14° E 04:28:08 14° E visible
10 Dec 8.9 06:02:53 10° SSE 06:08:06 79° WSW 06:08:24 75° WNW visible
10 Dec 10.1 18:12:16 10° NE 18:16:17 24° E 18:20:14 10° SSE visible
10 Dec 10.0 19:50:34 10° N 19:55:18 42° WNW 19:59:57 10° SW visible
11 Dec 9.8 05:27:25 10° SE 05:32:07 49° E 05:32:07 49° E visible
11 Dec 10.2 07:07:32 10° SW 07:11:29 22° W 07:12:23 21° W visible
11 Dec 8.9 19:14:35 10° NNE 19:19:38 89° ESE 19:24:36 10° SSW visible
11 Dec 11.7 20:55:28 10° NNW 20:57:44 13° NW 20:59:59 10° W visible
